Westerly, RI

7:01 PM EDT on October 18, 2017 (GMT -0400)
Westerly State

Weather History for KWST - January, 2013

Change the Weather History Date:

Tuesday, January 22, 2013

  Actual Average (KGON) Record (KGON)
Temperature  
Mean Temperature 20 °F -  
Max Temperature 26 °F 38 °F 55 °F (1973)
Min Temperature 12 °F 16 °F -14 °F (1961)
Degree Days  
Heating Degree Days 45    
Moisture  
Dew Point 6 °F    
Average Humidity 57    
Maximum Humidity 93    
Minimum Humidity 28    
Precipitation  
Precipitation 0.00 in - - ()
Sea Level Pressure  
Sea Level Pressure 29.92 in    
Wind  
Wind Speed 6 mph (NW)    
Max Wind Speed 15 mph    
Max Gust Speed 28 mph    
Visibility 8 miles    
Events Snow    
Averages and records for this station are not official NWS values.
T = Trace of Precipitation, MM = Missing Value Source: NWS Daily Summary

Daily Weather History Graph

Daily Weather History Graph

Search for Another Location

Airport or City:

Trip Planner

Search our weather history database for the weather conditions in past years. The results will help you decide how hot, cold, wet, or windy it might be!

Date:

Astronomy

Jan. 22, 2013 Rise Set
Actual Time 7:06 AM EST 4:51 PM EST
Civil Twilight 6:36 AM EST 5:21 PM EST
Nautical Twilight 6:03 AM EST 5:55 PM EST
Astronomical Twilight 5:30 AM EST 6:27 PM EST
Moon 1:11 PM EST (1/22) 3:26 AM EST (1/22)
Length of Visible Light 10h 44m
Length of Day
9h 44m
Waxing Gibbous, 82% of the Moon is Illuminated
Jan 22
Waxing Gibbous
Jan 26
Full
Feb 3
Last Quarter
Feb 10
New
Feb 17
First Quarter

Hourly Weather History & Observations

Time (EST) Temp. Windchill Dew Point Humidity Pressure Visibility Wind Dir Wind Speed Gust Speed Precip Events Conditions
12:11 AM 26.6 °F 19.1 °F 24.8 °F 93% 29.78 in 2.5 mi North 6.9 mph - 0.00 in Snow Light Snow
12:35 AM 26.6 °F 21.2 °F 24.8 °F 93% 29.78 in 5.0 mi NNW 4.6 mph - 0.00 in Snow Light Snow
12:51 AM 26.6 °F - 24.8 °F 93% 29.79 in 1.8 mi Calm Calm - 0.00 in Snow Light Snow
12:53 AM 26.1 °F - 24.1 °F 92% 29.79 in 1.8 mi Calm Calm - 0.00 in Snow Light Snow
12:57 AM 26.6 °F 22.6 °F 23.0 °F 86% 29.78 in 2.0 mi ESE 3.5 mph - 0.00 in Snow Light Snow
1:53 AM 26.1 °F - 24.1 °F 92% 29.78 in 10.0 mi Calm Calm - 0.00 in   Overcast
2:53 AM 21.9 °F - 19.9 °F 92% 29.78 in 7.0 mi Calm Calm - N/A   Partly Cloudy
3:53 AM 21.9 °F 15.7 °F 19.9 °F 92% 29.78 in 9.0 mi WNW 4.6 mph - N/A   Clear
4:53 AM 21.9 °F 15.7 °F 18.0 °F 85% 29.79 in 10.0 mi Variable 4.6 mph - N/A   Overcast
5:53 AM 21.0 °F 11.4 °F 12.9 °F 71% 29.83 in 10.0 mi NW 8.1 mph - N/A   Scattered Clouds
6:53 AM 19.9 °F 10.1 °F 10.0 °F 65% 29.86 in 10.0 mi NW 8.1 mph 21.9 mph N/A   Partly Cloudy
7:53 AM 19.9 °F 6.2 °F 6.1 °F 55% 29.88 in 10.0 mi NW 15.0 mph 25.3 mph N/A   Clear
8:53 AM 21.0 °F 8.1 °F 1.9 °F 44% 29.91 in 10.0 mi NNW 13.8 mph 24.2 mph N/A   Clear
9:53 AM 21.9 °F 12.5 °F -0.9 °F 37% 29.93 in 10.0 mi NW 8.1 mph - N/A   Clear
10:53 AM 21.9 °F 8.7 °F -5.1 °F 30% 29.93 in 10.0 mi NW 15.0 mph 27.6 mph N/A   Clear
11:53 AM 23.0 °F 13.1 °F -4.0 °F 31% 29.93 in 10.0 mi West 9.2 mph 23.0 mph N/A   Clear
12:53 PM 24.1 °F 13.1 °F -2.9 °F 31% 29.91 in 10.0 mi West 11.5 mph 19.6 mph N/A   Partly Cloudy
1:53 PM 23.0 °F 13.1 °F -5.1 °F 29% 29.92 in 10.0 mi WNW 9.2 mph 19.6 mph N/A   Clear
2:53 PM 21.9 °F 9.8 °F -5.1 °F 30% 29.95 in 10.0 mi NW 12.7 mph 25.3 mph N/A   Clear
3:53 PM 21.9 °F 11.0 °F -7.1 °F 28% 29.96 in 10.0 mi NW 10.4 mph 16.1 mph N/A   Clear
4:53 PM 19.9 °F 12.1 °F -6.0 °F 32% 29.98 in 10.0 mi WNW 5.8 mph - N/A   Clear
5:53 PM 19.0 °F 12.3 °F -6.0 °F 33% 30.03 in 10.0 mi NW 4.6 mph - N/A   Clear
6:53 PM 18.0 °F 12.7 °F -5.1 °F 36% 30.06 in 10.0 mi WNW 3.5 mph - N/A   Clear
7:53 PM 17.1 °F 10.0 °F -5.1 °F 37% 30.07 in 10.0 mi NNW 4.6 mph - N/A   Mostly Cloudy
8:53 PM 16.0 °F 7.4 °F -2.9 °F 43% 30.09 in 10.0 mi NW 5.8 mph - N/A   Clear
9:53 PM 15.1 °F 6.4 °F -4.0 °F 43% 30.11 in 10.0 mi NW 5.8 mph - N/A   Clear
10:53 PM 14.0 °F 8.2 °F -4.0 °F 45% 30.12 in 10.0 mi NW 3.5 mph - N/A   Partly Cloudy
11:53 PM 12.9 °F 3.8 °F -5.1 °F 45% 30.12 in 10.0 mi NW 5.8 mph - N/A   Clear